Location: Bjelajci
(45.0103°N, 16.1758°E)
Time: 09:01:55
(UTC+00:00)

CZ-4C R/B - Pass Details

Date: 14 July 2020
Orbit: 463 x 636 km, 98.0° (Epoch: 07 August)

Event Time Altitude Azimuth Distance (km) Brightness Sun altitude
Exits shadow 01:11:30 34° 242° (WSW) 878 3.9 -17.0°
Maximum altitude 01:12:01 36° 261° (W) 843 3.9 -17.0°
Drops below altitude 10° 01:15:28 10° 329° (NNW) 1,725 6.2 -16.7°
Sets 01:17:38 0° 339° (NNW) 2,588 7.3 -16.5°
